| time (UTC) | temp F | wind direction | speed knots | gust knots | rain 1hr in | rain 24hr in | rain mn in | humidity % | barometer mb |
| 20260904180022 | 52 | 0.0 | 0.0 | 0.00 | 0.00 | 0.00 | 90 | 997.3 | |
| 20260904175018 | 53 | 0.0 | 0.0 | 0.00 | 0.00 | 0.00 | 90 | 997.3 | |
| 20260904174032 | 53 | 0.0 | 0.0 | 0.00 | 0.00 | 0.00 | 89 | 997.3 | |
| 20260904173027 | 54 | 0.0 | 0.0 | 0.00 | 0.00 | 0.00 | 88 | 997.4 | |
| 20260904172022 | 54 | 0.0 | 0.0 | 0.00 | 0.00 | 0.00 | 87 | 997.4 | |
| 20260904171017 | 55 | 172 | 0.0 | 0.9 | 0.00 | 0.00 | 0.00 | 86 | 997.4 |
| 20260904170052 | 55 | 0.0 | 0.0 | 0.00 | 0.00 | 0.00 | 87 | 997.4 | |
| 20260904165028 | 56 | 179 | 0.0 | 0.9 | 0.00 | 0.00 | 0.00 | 84 | 997.4 |
| 20260904164043 | 56 | 114 | 1.7 | 3.5 | 0.00 | 0.00 | 0.00 | 82 | 997.5 |
| 20260904163018 | 56 | 129 | 1.7 | 3.5 | 0.00 | 0.00 | 0.00 | 82 | 997.4 |
| 20260904162033 | 57 | 134 | 1.7 | 2.6 | 0.00 | 0.00 | 0.00 | 81 | 997.4 |
| 20260904161029 | 57 | 138 | 0.9 | 2.6 | 0.00 | 0.00 | 0.00 | 80 | 997.4 |
| 20260904160025 | 57 | 117 | 1.7 | 3.5 | 0.00 | 0.00 | 0.00 | 79 | 997.5 |
| 20260904155020 | 58 | 121 | 0.9 | 3.5 | 0.00 | 0.00 | 0.00 | 78 | 997.5 |
| 20260904154035 | 58 | 106 | 2.6 | 5.2 | 0.00 | 0.00 | 0.00 | 78 | 997.5 |
| 20260904153031 | 59 | 113 | 1.7 | 5.2 | 0.00 | 0.00 | 0.00 | 77 | 997.5 |
| 20260904152106 | 59 | 118 | 1.7 | 3.5 | 0.00 | 0.00 | 0.00 | 77 | 997.6 |
| 20260904151022 | 59 | 138 | 0.9 | 5.2 | 0.00 | 0.00 | 0.00 | 77 | 997.6 |
| 20260904150016 | 59 | 111 | 1.7 | 6.1 | 0.00 | 0.00 | 0.00 | 76 | 997.7 |
| 20260904145032 | 59 | 112 | 1.7 | 3.5 | 0.00 | 0.00 | 0.00 | 75 | 997.6 |
| 20260904144028 | 60 | 102 | 3.5 | 7.0 | 0.00 | 0.00 | 0.00 | 75 | 997.6 |
| 20260904143103 | 61 | 88 | 1.7 | 5.2 | 0.00 | 0.00 | 0.00 | 74 | 997.8 |
| 20260904142038 | 61 | 129 | 0.9 | 2.6 | 0.00 | 0.00 | 0.00 | 74 | 997.7 |
| 20260904141034 | 61 | 153 | 0.9 | 2.6 | 0.00 | 0.00 | 0.00 | 73 | 997.7 |
| 20260904140049 | 62 | 126 | 1.7 | 3.5 | 0.00 | 0.00 | 0.00 | 70 | 997.8 |
| 20260904135045 | 63 | 160 | 0.9 | 2.6 | 0.00 | 0.00 | 0.00 | 69 | 997.9 |
| 20260904134040 | 61 | 128 | 0.9 | 2.6 | 0.00 | 0.00 | 0.00 | 71 | 997.9 |
| 20260904133020 | 60 | 155 | 0.9 | 1.7 | 0.00 | 0.00 | 0.00 | 74 | 997.9 |
| 20260904132031 | 60 | 124 | 0.9 | 3.5 | 0.00 | 0.00 | 0.00 | 73 | 998.1 |
| 20260904131026 | 61 | 107 | 1.7 | 3.5 | 0.00 | 0.00 | 0.00 | 71 | 998.1 |
| 20260904130022 | 61 | 112 | 1.7 | 3.5 | 0.00 | 0.00 | 0.00 | 71 | 998.1 |
| 20260904125017 | 62 | 114 | 2.6 | 6.1 | 0.00 | 0.00 | 0.00 | 69 | 998.1 |
| 20260904124032 | 65 | 101 | 2.6 | 5.2 | 0.00 | 0.00 | 0.00 | 60 | 998.1 |
| 20260904123047 | 65 | 78 | 1.7 | 6.1 | 0.00 | 0.00 | 0.00 | 59 | 998.1 |
| 20260904122042 | 64 | 146 | 0.9 | 2.6 | 0.00 | 0.00 | 0.00 | 61 | 998.3 |
| 20260904121058 | 63 | 126 | 1.7 | 3.5 | 0.00 | 0.00 | 0.00 | 62 | 998.4 |
| 20260904120031 | 64 | 176 | 0.9 | 2.6 | 0.00 | 0.00 | 0.00 | 60 | 998.4 |
| 20260904115027 | 62 | 176 | 0.0 | 1.7 | 0.00 | 0.00 | 0.00 | 65 | 998.7 |
| 20260904114043 | 62 | 135 | 0.9 | 1.7 | 0.00 | 0.00 | 0.00 | 64 | 998.7 |
| 20260904113017 | 62 | 123 | 0.9 | 3.5 | 0.00 | 0.00 | 0.00 | 63 | 998.8 |
| 20260904112033 | 63 | 118 | 1.7 | 3.5 | 0.00 | 0.00 | 0.00 | 62 | 998.9 |
| 20260904111028 | 63 | 235 | 1.7 | 6.1 | 0.00 | 0.00 | 0.00 | 63 | 998.9 |
| 20260904110044 | 65 | 222 | 0.9 | 2.6 | 0.00 | 0.00 | 0.00 | 63 | 999.0 |
| 20260904105019 | 62 | 201 | 0.9 | 2.6 | 0.00 | 0.00 | 0.00 | 65 | 999.1 |
| 20260904104035 | 61 | 210 | 1.7 | 3.5 | 0.00 | 0.00 | 0.00 | 65 | 999.2 |
| 20260904103030 | 62 | 238 | 1.7 | 3.5 | 0.00 | 0.00 | 0.00 | 63 | 999.3 |
| 20260904102026 | 62 | 220 | 1.7 | 5.2 | 0.00 | 0.00 | 0.00 | 66 | 999.3 |
| 20260904101021 | 62 | 177 | 0.9 | 2.6 | 0.00 | 0.00 | 0.00 | 66 | 999.6 |
| 20260904100017 | 61 | 272 | 1.7 | 2.6 | 0.00 | 0.00 | 0.00 | 66 | 999.7 |
| 20260904095032 | 61 | 140 | 0.9 | 2.6 | 0.00 | 0.00 | 0.00 | 66 | 999.8 |
| 20260904094028 | 60 | 148 | 0.9 | 1.7 | 0.00 | 0.00 | 0.00 | 68 | 999.7 |
| 20260904093023 | 61 | 150 | 0.9 | 2.6 | 0.00 | 0.00 | 0.00 | 68 | 999.8 |
| 20260904092038 | 61 | 182 | 0.9 | 1.7 | 0.00 | 0.00 | 0.00 | 67 | 999.9 |
| 20260904091114 | 62 | 0.0 | 0.0 | 0.00 | 0.00 | 0.00 | 67 | 999.9 | |
| 20260904090049 | 61 | 130 | 0.0 | 0.9 | 0.00 | 0.00 | 0.00 | 69 | 1000.0 |
| 20260904085024 | 59 | 0.0 | 0.0 | 0.00 | 0.00 | 0.00 | 72 | 1000.0 | |
| 20260904084059 | 59 | 232 | 0.0 | 0.9 | 0.00 | 0.00 | 0.00 | 72 | 1000.2 |
| 20260904083035 | 60 | 207 | 0.0 | 0.9 | 0.00 | 0.00 | 0.00 | 73 | 1000.0 |
| 20260904082029 | 59 | 184 | 0.0 | 0.9 | 0.00 | 0.00 | 0.00 | 74 | 1000.1 |
| 20260904081026 | 57 | 0.0 | 0.0 | 0.00 | 0.00 | 0.00 | 77 | 1000.3 | |
| 20260904080021 | 58 | 245 | 0.0 | 1.7 | 0.00 | 0.00 | 0.00 | 75 | 1000.5 |
| 20260904075036 | 57 | 0.0 | 0.0 | 0.00 | 0.00 | 0.00 | 76 | 1000.5 | |
| 20260904074031 | 55 | 251 | 0.0 | 1.7 | 0.00 | 0.00 | 0.00 | 80 | 1000.5 |
| 20260904073106 | 55 | 0.0 | 0.0 | 0.00 | 0.00 | 0.00 | 79 | 1000.6 | |
| 20260904072042 | 54 | 261 | 0.0 | 0.9 | 0.00 | 0.00 | 0.00 | 80 | 1000.6 |
| 20260904071017 | 54 | 0.0 | 0.0 | 0.00 | 0.00 | 0.00 | 81 | 1000.7 | |
| 20260904070033 | 53 | 0.0 | 0.0 | 0.00 | 0.00 | 0.00 | 83 | 1000.9 | |
| 20260904065049 | 51 | 0.0 | 0.0 | 0.00 | 0.00 | 0.00 | 85 | 1000.7 | |
| 20260904064023 | 50 | 250 | 0.0 | 0.9 | 0.00 | 0.00 | 0.00 | 87 | 1000.8 |
| 20260904063043 | 48 | 0.0 | 0.0 | 0.00 | 0.00 | 0.00 | 91 | 1000.8 | |
| 20260904062033 | 48 | 214 | 0.0 | 0.9 | 0.00 | 0.00 | 0.00 | 89 | 1000.8 |
| 20260904061048 | 47 | 0.0 | 0.0 | 0.00 | 0.00 | 0.00 | 91 | 1000.8 | |
| 20260904060023 | 46 | 0.0 | 0.0 | 0.00 | 0.00 | 0.00 | 93 | 1000.6 | |
| 20260904055020 | 45 | 0.0 | 0.0 | 0.00 | 0.00 | 0.00 | 93 | 1000.7 | |
| 20260904054016 | 44 | 252 | 0.0 | 2.6 | 0.00 | 0.00 | 0.00 | 95 | 1000.9 |
| 20260904053032 | 43 | 239 | 0.0 | 0.9 | 0.00 | 0.00 | 0.00 | 98 | 1001.0 |
| 20260904052027 | 43 | 0.0 | 0.0 | 0.00 | 0.00 | 0.00 | 99 | 1001.1 | |
| 20260904051023 | 42 | 0.0 | 0.0 | 0.00 | 0.00 | 0.00 | 99 | 1001.0 | |
| 20260904050038 | 41 | 0.0 | 0.0 | 0.00 | 0.00 | 0.00 | 99 | 1001.0 | |
| 20260904045135 | 42 | 0.0 | 0.0 | 0.00 | 0.00 | 0.00 | 99 | 1000.9 | |
| 20260904044030 | 39 | 0.0 | 0.0 | 0.00 | 0.00 | 0.00 | 99 | 1001.0 | |
| 20260904043025 | 39 | 0.0 | 0.0 | 0.00 | 0.00 | 0.00 | 99 | 1001.1 | |
| 20260904042020 | 37 | 0.0 | 0.0 | 0.00 | 0.00 | 0.00 | 99 | 1000.9 | |
| 20260904041016 | 38 | 0.0 | 0.0 | 0.00 | 0.00 | 0.00 | 99 | 1001.1 | |
| 20260904040031 | 39 | 0.0 | 0.0 | 0.00 | 0.00 | 0.00 | 99 | 1001.1 | |
| 20260904035026 | 40 | 0.0 | 0.0 | 0.00 | 0.00 | 0.00 | 99 | 1001.2 | |
| 20260904034041 | 41 | 0.0 | 0.0 | 0.00 | 0.00 | 0.00 | 99 | 1001.2 | |
| 20260904033017 | 41 | 0.0 | 0.0 | 0.00 | 0.00 | 0.00 | 99 | 1001.2 | |
| 20260904032032 | 41 | 225 | 0.0 | 0.9 | 0.00 | 0.00 | 0.00 | 99 | 1001.1 |
| 20260904031027 | 41 | 0.0 | 0.0 | 0.00 | 0.00 | 0.00 | 99 | 1001.2 | |
| 20260904030023 | 41 | 237 | 0.0 | 0.9 | 0.00 | 0.00 | 0.00 | 99 | 1001.5 |
| 20260904025019 | 41 | 0.0 | 0.0 | 0.00 | 0.00 | 0.00 | 99 | 1001.5 | |
| 20260904024054 | 41 | 0.0 | 0.0 | 0.00 | 0.00 | 0.00 | 99 | 1001.5 | |
| 20260904023029 | 41 | 0.0 | 0.0 | 0.00 | 0.00 | 0.00 | 99 | 1001.6 | |
| 20260904022025 | 39 | 0.0 | 0.0 | 0.00 | 0.00 | 0.00 | 99 | 1001.6 | |
| 20260904021021 | 39 | 0.0 | 0.0 | 0.00 | 0.00 | 0.00 | 99 | 1001.7 | |
| 20260904020016 | 40 | 0.0 | 0.0 | 0.00 | 0.00 | 0.00 | 99 | 1001.7 | |
| 20260904015032 | 42 | 0.0 | 0.0 | 0.00 | 0.00 | 0.00 | 99 | 1001.7 | |
| 20260904014026 | 41 | 0.0 | 0.0 | 0.00 | 0.00 | 0.00 | 99 | 1001.9 | |
| 20260904013042 | 41 | 0.0 | 0.0 | 0.00 | 0.00 | 0.00 | 99 | 1001.9 | |
| 20260904012057 | 41 | 0.0 | 0.0 | 0.00 | 0.00 | 0.00 | 99 | 1002.0 | |
| 20260904011033 | 42 | 0.0 | 0.0 | 0.00 | 0.00 | 0.00 | 99 | 1002.0 | |
| 20260904010028 | 42 | 0.0 | 0.0 | 0.00 | 0.00 | 0.00 | 99 | 1002.2 | |
| 20260904005023 | 43 | 0.0 | 0.0 | 0.00 | 0.00 | 0.00 | 99 | 1002.2 | |
| 20260904004039 | 41 | 0.0 | 0.0 | 0.00 | 0.00 | 0.00 | 99 | 1002.5 | |
| 20260904003035 | 41 | 0.0 | 0.0 | 0.00 | 0.00 | 0.00 | 99 | 1002.3 | |
| 20260904002031 | 41 | 0.0 | 0.0 | 0.00 | 0.00 | 0.00 | 99 | 1002.4 | |
| 20260904001026 | 42 | 0.0 | 0.0 | 0.00 | 0.00 | 0.00 | 99 | 1002.5 | |
| 20260904000021 | 43 | 0.0 | 0.0 | 0.00 | 0.00 | 0.00 | 99 | 1002.3 | |
| 20260903235016 | 44 | 0.0 | 0.0 | 0.00 | 0.00 | 0.00 | 99 | 1002.6 | |
| 20260903234032 | 43 | 0.0 | 0.0 | 0.00 | 0.00 | 0.00 | 99 | 1002.5 | |
| 20260903233027 | 44 | 0.0 | 0.0 | 0.00 | 0.00 | 0.00 | 99 | 1002.7 | |
| 20260903232023 | 44 | 0.0 | 0.0 | 0.00 | 0.00 | 0.00 | 98 | 1002.8 | |
| 20260903231018 | 45 | 0.0 | 0.0 | 0.00 | 0.00 | 0.00 | 98 | 1002.7 | |
| 20260903230033 | 45 | 0.0 | 0.0 | 0.00 | 0.00 | 0.00 | 98 | 1002.7 | |
| 20260903225029 | 45 | 0.0 | 0.0 | 0.00 | 0.00 | 0.00 | 98 | 1002.8 | |
| 20260903224023 | 46 | 0.0 | 0.0 | 0.00 | 0.00 | 0.00 | 98 | 1003.0 | |
| 20260903223019 | 44 | 0.0 | 0.0 | 0.00 | 0.00 | 0.00 | 98 | 1003.0 | |
| 20260903222034 | 44 | 0.0 | 0.0 | 0.00 | 0.00 | 0.00 | 99 | 1003.1 | |
| 20260903221030 | 43 | 0.0 | 0.0 | 0.00 | 0.00 | 0.00 | 99 | 1003.1 | |
| 20260903220025 | 44 | 0.0 | 0.0 | 0.00 | 0.00 | 0.00 | 98 | 1003.1 | |
| 20260903215020 | 44 | 0.0 | 0.0 | 0.00 | 0.00 | 0.00 | 98 | 1003.2 | |
| 20260903214015 | 45 | 0.0 | 0.0 | 0.00 | 0.00 | 0.00 | 98 | 1003.1 | |
| 20260903213032 | 45 | 0.0 | 0.0 | 0.00 | 0.00 | 0.00 | 98 | 1002.9 | |
| 20260903212026 | 45 | 0.0 | 0.0 | 0.00 | 0.00 | 0.00 | 98 | 1002.9 | |
| 20260903211022 | 45 | 0.0 | 0.0 | 0.00 | 0.00 | 0.00 | 98 | 1003.0 | |
| 20260903210016 | 45 | 0.0 | 0.0 | 0.00 | 0.00 | 0.00 | 97 | 1002.9 | |
| 20260903205033 | 45 | 0.0 | 0.0 | 0.00 | 0.00 | 0.00 | 97 | 1003.1 | |
| 20260903204027 | 45 | 0.0 | 0.0 | 0.00 | 0.00 | 0.00 | 95 | 1003.0 | |
| 20260903203023 | 46 | 0.0 | 0.0 | 0.00 | 0.00 | 0.00 | 94 | 1003.0 | |
| 20260903202019 | 48 | 0.0 | 0.0 | 0.00 | 0.00 | 0.00 | 93 | 1003.1 | |
| 20260903201034 | 48 | 0.0 | 0.0 | 0.00 | 0.00 | 0.00 | 91 | 1003.2 | |
| 20260903200029 | 49 | 0.0 | 0.0 | 0.00 | 0.00 | 0.00 | 91 | 1003.2 | |
| 20260903195025 | 49 | 0.0 | 0.0 | 0.00 | 0.00 | 0.00 | 90 | 1003.4 | |
| 20260903194020 | 50 | 0.0 | 0.0 | 0.00 | 0.00 | 0.00 | 88 | 1003.5 | |
| 20260903193015 | 51 | 0.0 | 0.0 | 0.00 | 0.00 | 0.00 | 87 | 1003.5 | |
| 20260903192030 | 51 | 0.0 | 0.0 | 0.00 | 0.00 | 0.00 | 85 | 1003.3 | |
| 20260903191030 | 51 | 0.0 | 0.0 | 0.00 | 0.00 | 0.00 | 85 | 1003.3 | |
| 20260903190021 | 53 | 0.0 | 0.0 | 0.00 | 0.00 | 0.00 | 84 | 1003.3 | |
| 20260903185016 | 54 | 0.0 | 0.0 | 0.00 | 0.00 | 0.00 | 80 | 1003.3 | |
| 20260903184032 | 52 | 0.0 | 0.0 | 0.00 | 0.00 | 0.00 | 82 | 1003.2 | |
| 20260903183027 | 52 | 0.0 | 0.0 | 0.00 | 0.00 | 0.00 | 82 | 1003.2 | |
| 20260903182043 | 53 | 0.0 | 0.0 | 0.00 | 0.00 | 0.00 | 78 | 1003.4 | |
| 20260903181018 | 55 | 0.0 | 0.0 | 0.00 | 0.00 | 0.00 | 74 | 1003.4 |